HAZ3763 ZGGG-ZHCC

Flight info

Callsign HAZ3763
Flight time N/A
Altitude 37100
Route MIKIP9 MIKIP A461 BUBDA/K0895S1100 W56 REBIS/K0893S1130 W56 IGMIG IGM10U
Aircraft B77W/H-SDE1E2E3FGHIJ2J3J4J5M1RWXY/LB1D1

Departure

Time N/A
Airport Guangzhou Baiyun International Airport (ZGGG)

Arrival

Time 2026-05-06 02:41
Airport Zhengzhou Xinzheng International Airport (ZHCC)
Time Latitude Longitude Altitude Speed Heading
2026-05-06 01:33 29.58300 113.56412 36995 ft 462 kts 359°
2026-05-06 01:33 29.61536 113.56693 36989 ft 462 kts 359°
2026-05-06 01:33 29.67886 113.57246 36983 ft 460 kts 359°
2026-05-06 01:34 29.74318 113.57807 36970 ft 461 kts 359°
2026-05-06 01:34 29.80775 113.58370 36971 ft 463 kts 359°
2026-05-06 01:35 29.87219 113.58933 36964 ft 461 kts 359°
2026-05-06 01:35 29.93664 113.59718 36971 ft 467 kts
2026-05-06 01:36 29.99900 113.62258 36961 ft 477 kts 18°
2026-05-06 01:36 30.06094 113.65343 36952 ft 476 kts 19°
2026-05-06 01:37 30.12206 113.68394 36948 ft 476 kts 19°
2026-05-06 01:37 30.18339 113.71459 36957 ft 476 kts 19°
2026-05-06 01:38 30.24509 113.74546 36962 ft 477 kts 19°
2026-05-06 01:38 30.30603 113.77600 36963 ft 477 kts 19°
2026-05-06 01:39 30.36785 113.80701 36967 ft 478 kts 19°
2026-05-06 01:39 30.42910 113.83778 36969 ft 477 kts 19°
2026-05-06 01:40 30.49058 113.86871 36965 ft 479 kts 19°
2026-05-06 01:40 30.55173 113.89953 36962 ft 476 kts 19°
2026-05-06 01:41 30.61322 113.93054 36966 ft 478 kts 19°
2026-05-06 01:41 30.67476 113.96093 36968 ft 478 kts 18°
2026-05-06 01:42 30.73580 113.99189 36979 ft 479 kts 21°
2026-05-06 01:42 30.79654 114.02627 36970 ft 480 kts 21°
2026-05-06 01:43 30.85741 114.05939 36973 ft 480 kts 21°
2026-05-06 01:43 30.91883 114.09274 36975 ft 480 kts 21°
2026-05-06 01:44 30.97939 114.12564 36974 ft 479 kts 20°
2026-05-06 01:44 31.03997 114.15858 36969 ft 478 kts 20°
2026-05-06 01:45 31.10073 114.19160 36961 ft 478 kts 20°
2026-05-06 01:45 31.16167 114.22477 36961 ft 481 kts 20°
2026-05-06 01:46 31.22227 114.25781 36970 ft 478 kts 20°
2026-05-06 01:46 31.28270 114.29079 36969 ft 479 kts 20°
2026-05-06 01:47 31.34384 114.32168 36958 ft 472 kts 12°
2026-05-06 01:47 31.40800 114.33355 36967 ft 463 kts 357°
2026-05-06 01:48 31.47234 114.33543 36968 ft 461 kts 356°
2026-05-06 01:48 31.53698 114.33721 36967 ft 462 kts 356°
2026-05-06 01:49 31.60148 114.33906 36963 ft 460 kts 356°
2026-05-06 01:49 31.66583 114.34093 36963 ft 463 kts 357°
2026-05-06 01:50 31.73038 114.34283 36965 ft 460 kts 356°
2026-05-06 01:50 31.79447 114.34476 36964 ft 462 kts 357°
2026-05-06 01:51 31.85900 114.34673 36962 ft 462 kts 356°
2026-05-06 01:51 31.92346 114.34867 36952 ft 460 kts 357°
2026-05-06 01:52 31.98789 114.35062 36951 ft 460 kts 357°
2026-05-06 01:52 32.05237 114.35256 36946 ft 461 kts 356°
2026-05-06 01:53 32.11654 114.35451 36948 ft 460 kts 356°
2026-05-06 01:53 32.18068 114.35645 36943 ft 460 kts 356°
2026-05-06 01:54 32.24579 114.35843 36940 ft 461 kts 356°
2026-05-06 01:54 32.31014 114.36285 36938 ft 463 kts 360°
2026-05-06 01:55 32.37484 114.36912 36939 ft 461 kts 360°
2026-05-06 01:55 32.43959 114.37522 36938 ft 462 kts 359°
2026-05-06 01:56 32.50389 114.38120 36939 ft 461 kts 359°
2026-05-06 01:56 32.56792 114.38711 36940 ft 462 kts 359°
2026-05-06 01:57 32.63229 114.39304 36936 ft 462 kts 359°
2026-05-06 01:57 32.69677 114.39902 36935 ft 462 kts 359°
2026-05-06 01:58 32.76085 114.40500 36934 ft 459 kts 359°
2026-05-06 01:58 32.82506 114.41099 36932 ft 460 kts 359°
2026-05-06 01:59 32.88892 114.41695 36937 ft 460 kts 359°
2026-05-06 01:59 32.95288 114.42293 36931 ft 459 kts 359°
2026-05-06 02:00 33.01702 114.42893 36933 ft 461 kts 359°
2026-05-06 02:00 33.08084 114.43492 36670 ft 456 kts 359°
2026-05-06 02:01 33.11298 114.43793 36229 ft 459 kts 359°
2026-05-06 02:01 33.14531 114.44000 35665 ft 460 kts 354°
2026-05-06 02:01 33.17707 114.43698 35068 ft 460 kts 346°
2026-05-06 02:01 33.20863 114.42818 34606 ft 458 kts 338°
2026-05-06 02:02 33.23809 114.41412 34355 ft 452 kts 329°
2026-05-06 02:02 33.26521 114.39532 34146 ft 447 kts 322°
2026-05-06 02:02 33.28960 114.37238 33877 ft 444 kts 315°
2026-05-06 02:02 33.31099 114.34567 33491 ft 445 kts 307°
2026-05-06 02:03 33.32949 114.31557 33026 ft 448 kts 304°
2026-05-06 02:03 33.34986 114.28610 32710 ft 453 kts 311°
2026-05-06 02:03 33.37300 114.26075 32601 ft 453 kts 318°
2026-05-06 02:03 33.39880 114.23835 32517 ft 454 kts 324°
2026-05-06 02:04 33.42602 114.21892 32319 ft 456 kts 328°
2026-05-06 02:04 33.45477 114.20148 31955 ft 462 kts 331°
2026-05-06 02:04 33.48448 114.18578 31597 ft 468 kts 333°
2026-05-06 02:04 33.51510 114.17112 31340 ft 471 kts 335°
2026-05-06 02:05 33.54610 114.15766 31189 ft 471 kts 337°
2026-05-06 02:05 33.57728 114.14519 31044 ft 472 kts 338°
2026-05-06 02:05 33.60908 114.13326 30830 ft 474 kts 339°
2026-05-06 02:05 33.64094 114.12187 30619 ft 475 kts 340°
2026-05-06 02:06 33.67266 114.11098 30266 ft 467 kts 340°
2026-05-06 02:06 33.70423 114.10037 29727 ft 461 kts 340°
2026-05-06 02:06 33.73494 114.09023 29183 ft 455 kts 341°
2026-05-06 02:06 33.76559 114.08024 28654 ft 450 kts 341°
2026-05-06 02:07 33.79634 114.07029 28123 ft 460 kts 341°
2026-05-06 02:07 33.82836 114.06001 27540 ft 464 kts 341°
2026-05-06 02:07 33.86000 114.04994 26954 ft 462 kts 341°
2026-05-06 02:07 33.89095 114.04014 26388 ft 457 kts 341°
2026-05-06 02:08 33.92197 114.03037 25789 ft 452 kts 341°
2026-05-06 02:08 33.95282 114.02067 25194 ft 447 kts 341°
2026-05-06 02:08 33.98286 114.01122 24618 ft 443 kts 341°
2026-05-06 02:08 34.01279 114.00182 24028 ft 438 kts 341°
2026-05-06 02:09 34.04236 113.99252 23442 ft 434 kts 341°
2026-05-06 02:09 34.07114 113.98164 22844 ft 424 kts 333°
2026-05-06 02:09 34.09749 113.96543 22257 ft 414 kts 323°
2026-05-06 02:09 34.12043 113.94467 21694 ft 404 kts 314°
2026-05-06 02:10 34.13975 113.92015 21131 ft 395 kts 305°
2026-05-06 02:10 34.15515 113.89277 20573 ft 386 kts 297°
2026-05-06 02:10 34.16703 113.86331 20037 ft 380 kts 292°
2026-05-06 02:10 34.17805 113.83350 19501 ft 392 kts 291°
2026-05-06 02:11 34.18900 113.80313 18933 ft 395 kts 291°
2026-05-06 02:11 34.19984 113.77252 18371 ft 393 kts 291°
2026-05-06 02:11 34.21068 113.74153 17797 ft 389 kts 291°
2026-05-06 02:11 34.22115 113.71132 17245 ft 386 kts 291°
2026-05-06 02:12 34.23134 113.68176 16704 ft 384 kts 291°
2026-05-06 02:12 34.24162 113.65181 16142 ft 380 kts 291°
2026-05-06 02:12 34.25182 113.62206 15587 ft 377 kts 291°
2026-05-06 02:12 34.26190 113.59258 15028 ft 374 kts 292°
2026-05-06 02:13 34.27188 113.56332 14527 ft 368 kts 292°
2026-05-06 02:13 34.28148 113.53517 14395 ft 352 kts 291°
2026-05-06 02:13 34.29055 113.50854 14300 ft 337 kts 291°
2026-05-06 02:13 34.29943 113.48243 14170 ft 323 kts 291°
2026-05-06 02:14 34.30791 113.45744 14025 ft 311 kts 291°
2026-05-06 02:14 34.31615 113.43328 13894 ft 299 kts 291°
2026-05-06 02:14 34.32417 113.41074 13767 ft 289 kts 298°
2026-05-06 02:14 34.33725 113.39268 13644 ft 282 kts 324°
2026-05-06 02:15 34.35476 113.38294 13529 ft 277 kts 345°
2026-05-06 02:15 34.37414 113.38214 13189 ft 282 kts
2026-05-06 02:15 34.39337 113.38770 12779 ft 287 kts 16°
2026-05-06 02:15 34.41214 113.39610 12382 ft 289 kts 25°
2026-05-06 02:16 34.42783 113.41133 12028 ft 291 kts 52°
2026-05-06 02:16 34.43629 113.43364 11674 ft 295 kts 80°
2026-05-06 02:16 34.43557 113.45837 11309 ft 292 kts 107°
2026-05-06 02:16 34.42891 113.48142 10960 ft 289 kts 114°
2026-05-06 02:17 34.42106 113.50429 10683 ft 285 kts 115°
2026-05-06 02:17 34.41333 113.52664 10404 ft 287 kts 115°
2026-05-06 02:17 34.40575 113.54889 10082 ft 284 kts 115°
2026-05-06 02:17 34.39831 113.57082 9753 ft 282 kts 115°
2026-05-06 02:18 34.39079 113.59298 9409 ft 279 kts 115°
2026-05-06 02:18 34.38324 113.61517 9073 ft 278 kts 115°
2026-05-06 02:18 34.37592 113.63673 8747 ft 277 kts 115°
2026-05-06 02:18 34.36860 113.65823 8412 ft 274 kts 115°
2026-05-06 02:19 34.36149 113.67932 8096 ft 272 kts 113°
2026-05-06 02:19 34.35901 113.70228 7733 ft 275 kts 85°
2026-05-06 02:19 34.36572 113.72415 7374 ft 277 kts 57°
2026-05-06 02:19 34.37971 113.74003 7045 ft 275 kts 29°
2026-05-06 02:20 34.41608 113.74944 6391 ft 267 kts 344°
2026-05-06 02:20 34.43227 113.73968 6072 ft 259 kts 316°
2026-05-06 02:20 34.44307 113.72280 5768 ft 252 kts 295°
2026-05-06 02:21 34.45072 113.70341 5493 ft 245 kts 291°
2026-05-06 02:21 34.45741 113.68443 5213 ft 239 kts 289°
2026-05-06 02:21 34.46370 113.66609 4946 ft 233 kts 289°
2026-05-06 02:21 34.46987 113.64832 4827 ft 223 kts 294°
2026-05-06 02:22 34.48035 113.63455 4772 ft 229 kts 326°
2026-05-06 02:22 34.49619 113.62924 4639 ft 239 kts 358°
2026-05-06 02:22 34.51282 113.63309 4318 ft 241 kts 18°
2026-05-06 02:22 34.52860 113.64051 3994 ft 237 kts 22°
2026-05-06 02:23 34.54371 113.64814 3705 ft 233 kts 22°
2026-05-06 02:23 34.55858 113.65559 3440 ft 229 kts 22°
2026-05-06 02:23 34.57347 113.66375 3354 ft 231 kts 35°
2026-05-06 02:23 34.58369 113.67823 3281 ft 223 kts 71°
2026-05-06 02:24 34.58590 113.69617 3087 ft 209 kts 103°
2026-05-06 02:24 34.58248 113.71295 2782 ft 204 kts 111°
2026-05-06 02:24 34.57811 113.72921 2514 ft 196 kts 118°
2026-05-06 02:24 34.57275 113.74410 2248 ft 180 kts 120°
2026-05-06 02:25 34.56811 113.75726 2005 ft 159 kts 119°
2026-05-06 02:25 34.56394 113.76942 1795 ft 154 kts 119°
2026-05-06 02:25 34.55984 113.78143 1581 ft 156 kts 118°
2026-05-06 02:25 34.55564 113.79372 1390 ft 153 kts 118°
2026-05-06 02:26 34.55151 113.80576 1134 ft 156 kts 118°
2026-05-06 02:26 34.54728 113.81777 976 ft 154 kts 117°
2026-05-06 02:26 34.54326 113.82970 767 ft 153 kts 116°
2026-05-06 02:26 34.53920 113.84170 569 ft 151 kts 115°
2026-05-06 02:27 34.53529 113.85331 691 ft 152 kts 114°
2026-05-06 02:27 34.53094 113.86543 1020 ft 167 kts 118°
2026-05-06 02:27 34.52677 113.87896 2095 ft 177 kts 113°
2026-05-06 02:27 34.52289 113.89409 2624 ft 203 kts 112°
2026-05-06 02:28 34.51915 113.91099 2324 ft 209 kts 110°
2026-05-06 02:28 34.51480 113.92957 2285 ft 232 kts 111°
2026-05-06 02:28 34.51000 113.94949 2326 ft 238 kts 110°
2026-05-06 02:28 34.50876 113.97044 2688 ft 249 kts 83°
2026-05-06 02:29 34.51609 113.98974 3033 ft 258 kts 53°
2026-05-06 02:29 34.52998 114.00459 3417 ft 266 kts 39°
2026-05-06 02:29 34.54572 114.01685 3611 ft 275 kts 21°
2026-05-06 02:29 34.56469 114.02215 3607 ft 270 kts 11°
2026-05-06 02:30 34.58160 114.03180 3601 ft 264 kts 40°
2026-05-06 02:30 34.59630 114.04551 3584 ft 263 kts 27°
2026-05-06 02:30 34.61378 114.05092 3537 ft 259 kts 357°
2026-05-06 02:30 34.63116 114.04560 3485 ft 251 kts 326°
2026-05-06 02:31 34.64368 114.03132 3444 ft 238 kts 297°
2026-05-06 02:31 34.64887 114.01292 3411 ft 229 kts 274°
2026-05-06 02:31 34.65066 113.99365 3417 ft 229 kts 272°
2026-05-06 02:31 34.65229 113.97446 3418 ft 229 kts 271°
2026-05-06 02:32 34.65394 113.95499 3419 ft 229 kts 271°
2026-05-06 02:32 34.65556 113.93562 3427 ft 229 kts 271°
2026-05-06 02:32 34.65722 113.91582 3430 ft 230 kts 271°
2026-05-06 02:32 34.65883 113.89644 3433 ft 231 kts 271°
2026-05-06 02:33 34.66042 113.87703 3428 ft 231 kts 272°
2026-05-06 02:33 34.66150 113.86395 3424 ft 231 kts 272°
2026-05-06 02:34 34.66722 113.79883 3434 ft 231 kts 276°
2026-05-06 02:34 34.66978 113.77945 3435 ft 231 kts 276°
2026-05-06 02:34 34.67233 113.76008 3422 ft 232 kts 276°
2026-05-06 02:34 34.67481 113.74096 3289 ft 229 kts 276°
2026-05-06 02:35 34.67733 113.72162 3056 ft 227 kts 276°
2026-05-06 02:35 34.67902 113.70255 2777 ft 225 kts 263°
2026-05-06 02:35 34.67401 113.68510 2472 ft 215 kts 234°
2026-05-06 02:35 34.66275 113.67458 2267 ft 199 kts 200°
2026-05-06 02:36 34.64942 113.67267 2266 ft 188 kts 189°
2026-05-06 02:36 34.63624 113.67004 2269 ft 186 kts 192°
2026-05-06 02:36 34.62374 113.66754 2261 ft 179 kts 187°
2026-05-06 02:36 34.61157 113.67039 2266 ft 179 kts 166°
2026-05-06 02:37 34.59963 113.67547 2267 ft 180 kts 162°
2026-05-06 02:37 34.58944 113.68452 2243 ft 184 kts 129°
2026-05-06 02:37 34.58609 113.69969 2237 ft 190 kts 96°
2026-05-06 02:37 34.58382 113.71537 2278 ft 192 kts 122°
2026-05-06 02:38 34.57751 113.72982 2262 ft 192 kts 120°
2026-05-06 02:38 34.57231 113.74495 2100 ft 184 kts 117°
2026-05-06 02:38 34.56768 113.75866 1893 ft 164 kts 119°
2026-05-06 02:38 34.56340 113.77102 1714 ft 156 kts 118°
2026-05-06 02:39 34.55921 113.78326 1530 ft 156 kts 118°
2026-05-06 02:39 34.55514 113.79520 1321 ft 152 kts 118°
2026-05-06 02:39 34.55076 113.80749 1151 ft 157 kts 118°
2026-05-06 02:39 34.54647 113.81991 955 ft 151 kts 116°
2026-05-06 02:40 34.54263 113.83160 714 ft 152 kts 116°
2026-05-06 02:40 34.53856 113.84360 544 ft 153 kts 116°
2026-05-06 02:40 34.53464 113.85503 497 ft 133 kts 115°
2026-05-06 02:40 34.53167 113.86362 481 ft 74 kts 112°
2026-05-06 02:41 34.53043 113.86739 482 ft 37 kts 111°
2026-05-06 02:41 34.52953 113.86994 481 ft 25 kts 114°
2026-05-06 02:41 34.52924 113.87157 482 ft 17 kts 59°
2026-05-06 02:41 34.53028 113.87219 480 ft 17 kts 354°
2026-05-06 02:42 34.53099 113.87115 478 ft 16 kts 291°
2026-05-06 02:42 34.53142 113.86985 477 ft 16 kts 291°
2026-05-06 02:42 34.53184 113.86859 477 ft 15 kts 292°
2026-05-06 02:42 34.53236 113.86761 477 ft 13 kts 335°
2026-05-06 02:43 34.53332 113.86788 473 ft 16 kts 23°
2026-05-06 02:43 34.53444 113.86843 468 ft 18 kts 21°
2026-05-06 02:43 34.53572 113.86905 462 ft 20 kts 22°
2026-05-06 02:43 34.53708 113.86973 457 ft 18 kts 13°
2026-05-06 02:44 34.53812 113.86911 453 ft 17 kts
2026-05-06 02:44 34.53870 113.86936 451 ft 0 kts 22°